UKUBE-1

Last updated on Sun Jun 21 2026 00:03:50 GMT+0000 (Coordinated Universal Time)

1 40074U 14037F 26170.94486741 .00007166 00000+0 40346-3 0 9998 2 40074 98.4240 174.5065 0002807 127.2512 232.8973 15.13591351648971
UTC large
Height (km)
Speed (km/s)
/
Latitude / Longitude
Inclination (degrees)
Orbital Period (minutes)
Azimuth
Elevation
Range (km)
Doppler Factor

Next 0 passes for location: London (51.5072 / 0.1276)

No passes found over London.
UKUBE-1